This demonstration page uses our WeatherBlox Daily Observations layout. Learn more.

41.55636, -103.73856

Hourly Observations for April 18, 2019

Temp ( °F °C ) Dew Point ( °F °C ) Humidity (%) Winds ( mph kmh ) Pressure ( in mb ) Visibility ( mi km ) Precip ( " mm )
12:58 am 00:58 Mostly Cloudy 51 10.8 31 -0.6 46 46 N 14 22 29.9 1012 10 16.0934 0 0
2:58 am 02:58 Cloudy with Showers 41 5 36 2.4 83 83 N 17 28 30.01 1016 7 11.26538 0.05 1.27
3:58 am 03:58 Cloudy with Light Rain/Snow 39 4.1 36 2.4 89 89 NNE 10 17 30.04 1017 9 14.48406 0.12 3.048
4:59 am 04:59 Partly Cloudy 38 3.5 35 1.4 86 86 NW 8 13 30.03 1017 10 16.0934 0 0
5:58 am 05:58 Partly Cloudy 37 2.8 35 1.9 94 94 W 13 20 30.06 1018 10 16.0934 0 0
6:58 am 06:58 Mostly Cloudy 37 3 35 1.7 91 91 WNW 14 22 30.06 1018 10 16.0934 0 0
7:58 am 07:58 Mostly Cloudy 38 3.2 34 1.2 87 87 WNW 15 24 30.04 1017 10 16.0934 0 0
8:58 am 08:58 Mostly Cloudy 36 2.2 32 0.1 86 86 WNW 15 24 30.03 1017 10 16.0934 0 0
9:58 am 09:58 Partly Cloudy 36 2 32 -0.1 86 86 NW 14 22 30.13 1020 10 16.0934 0 0
10:58 am 10:58 Mostly Cloudy 38 3.5 31 -0.4 76 76 NW 22 35 30.05 1018 10 16.0934 0 0
11:58 am 11:58 Mostly Cloudy 40 4.3 30 -1.3 67 67 NNW 21 33 30.05 1018 10 16.0934 0 0
12:58 pm 12:58 Mostly Cloudy with Showers 37 2.6 32 0.2 84 84 N 23 37 30.13 1020 6 9.65604 0.01 0.254
1:58 pm 13:58 Windy with Rain Showers Likely 37 2.8 33 0.5 85 85 NW 21 33 30.19 1023 10 16.0934 0.02 0.508
2:58 pm 14:58 Partly Cloudy 41 5.2 35 1.6 78 78 NNW 22 35 30.19 1023 10 16.0934 0 0
3:56 pm 15:56 Mostly Cloudy 42 5.7 34 1 72 72 NW 24 39 30.2 1023 10 16.0934 0 0
4:56 pm 16:56 Mostly Cloudy 45 7.2 28 -2.1 52 52 NNW 31 50 30.19 1023 10 16.0934 0 0
5:56 pm 17:56 Windy with Rain Showers Likely 44 6.7 31 -0.6 60 60 NNW 22 35 30.2 1023 10 16.0934 0 0
6:56 pm 18:56 Mostly Cloudy 49 9.7 27 -2.8 42 42 NNW 26 43 30.15 1021 10 16.0934 0 0
7:56 pm 19:56 Mostly Cloudy 51 10.4 23 -5 34 34 NNW 26 43 30.14 1021 10 16.0934 0 0
8:56 pm 20:56 Mostly Cloudy 51 10.3 24 -4.4 36 36 N 25 41 30.15 1021 10 16.0934 0 0
9:57 pm 21:57 Mostly Cloudy 51 10.8 20 -6.4 30 30 N 29 46 30.12 1020 10 16.0934 0 0
10:56 pm 22:56 Partly Cloudy 52 10.9 22 -5.7 31 31 N 24 39 30.13 1020 10 16.0934 0 0
11:56 pm 23:56 Mostly Cloudy 53 11.5 22 -5.7 30 30 N 25 41 30.14 1021 10 16.0934 0 0

Powered by AerisWeather